Time,TemperatureF,DewpointF,PressureIn,WindDirection,WindDirectionDegrees,WindSpeedMPH,WindSpeedGustMPH,Humidity,HourlyPrecipIn,Conditions,Clouds,dailyrainin,SoftwareType,DateUTC
2013-06-27 00:07:00,67.9,67.0,29.94,East,84,0.0,0.0,96,0.00,,,0.18,weatherlink.com 1.10,2013-06-27 04:07:00,
2013-06-27 00:22:00,68.1,67.0,29.92,SSW,212,1.0,2.0,97,0.00,,,0.00,weatherlink.com 1.10,2013-06-27 04:22:00,
2013-06-27 00:37:00,68.3,68.0,29.93,SSW,202,0.0,2.0,97,0.00,,,0.00,weatherlink.com 1.10,2013-06-27 04:37:00,
2013-06-27 00:52:00,68.2,67.0,29.92,SE,140,0.0,1.0,97,0.00,,,0.00,weatherlink.com 1.10,2013-06-27 04:52:00,
2013-06-27 01:07:00,68.3,67.0,29.92,SE,139,0.0,0.0,96,0.00,,,0.00,weatherlink.com 1.10,2013-06-27 05:07:00,
2013-06-27 01:22:00,68.3,67.0,29.92,SSE,162,0.0,0.0,96,0.00,,,0.00,weatherlink.com 1.10,2013-06-27 05:22:00,
2013-06-27 01:37:00,68.3,67.0,29.90,SSW,208,0.0,0.0,95,0.00,,,0.00,weatherlink.com 1.10,2013-06-27 05:37:00,
2013-06-27 01:52:00,68.8,67.0,29.90,South,173,0.0,0.0,94,0.00,,,0.00,weatherlink.com 1.10,2013-06-27 05:52:00,
2013-06-27 02:07:00,68.7,67.0,29.89,South,188,0.0,0.0,93,0.00,,,0.00,weatherlink.com 1.10,2013-06-27 06:07:00,
2013-06-27 02:22:00,68.8,67.0,29.88,South,180,0.0,0.0,93,0.00,,,0.00,weatherlink.com 1.10,2013-06-27 06:22:00,
2013-06-27 02:38:00,68.7,66.0,29.88,SSW,201,0.0,0.0,92,0.00,,,0.00,weatherlink.com 1.10,2013-06-27 06:38:00,
2013-06-27 02:53:00,68.9,66.0,29.88,SSW,201,0.0,0.0,91,0.00,,,0.00,weatherlink.com 1.10,2013-06-27 06:53:00,
2013-06-27 03:08:00,69.0,67.0,29.87,SSE,152,0.0,0.0,92,0.00,,,0.00,weatherlink.com 1.10,2013-06-27 07:08:00,
2013-06-27 03:23:00,69.1,67.0,29.85,SSW,205,1.0,2.0,92,0.00,,,0.00,weatherlink.com 1.10,2013-06-27 07:23:00,
2013-06-27 03:38:00,68.2,66.0,29.85,East,82,0.0,0.0,93,0.00,,,0.00,weatherlink.com 1.10,2013-06-27 07:38:00,
2013-06-27 03:53:00,68.0,66.0,29.85,SSE,157,0.0,0.0,94,0.00,,,0.00,weatherlink.com 1.10,2013-06-27 07:53:00,
2013-06-27 04:08:00,66.8,65.0,29.90,NNW,336,0.0,5.0,95,0.02,,,0.02,weatherlink.com 1.10,2013-06-27 08:08:00,
2013-06-27 04:24:00,65.9,65.0,29.89,South,190,1.0,2.0,95,0.05,,,0.05,weatherlink.com 1.10,2013-06-27 08:24:00,
2013-06-27 04:38:00,65.0,63.0,29.89,South,177,1.0,2.0,94,0.06,,,0.06,weatherlink.com 1.10,2013-06-27 08:38:00,
2013-06-27 04:53:00,64.0,63.0,29.90,SSW,210,1.0,2.0,95,0.06,,,0.06,weatherlink.com 1.10,2013-06-27 08:53:00,
2013-06-27 05:08:00,63.4,62.0,29.91,SSW,204,1.0,2.0,95,0.04,,,0.06,weatherlink.com 1.10,2013-06-27 09:08:00,
2013-06-27 05:23:00,63.1,62.0,29.90,SSE,153,1.0,2.0,95,0.02,,,0.07,weatherlink.com 1.10,2013-06-27 09:23:00,
2013-06-27 05:38:00,63.0,62.0,29.89,SSW,208,1.0,2.0,96,0.02,,,0.08,weatherlink.com 1.10,2013-06-27 09:38:00,
2013-06-27 05:53:00,63.0,62.0,29.89,SSW,194,1.0,1.0,96,0.03,,,0.09,weatherlink.com 1.10,2013-06-27 09:53:00,
2013-06-27 06:08:00,63.0,62.0,29.89,SSW,194,0.0,1.0,96,0.03,,,0.09,weatherlink.com 1.10,2013-06-27 10:08:00,
2013-06-27 06:23:00,63.2,62.0,29.89,SSW,194,0.0,1.0,96,0.02,,,0.09,weatherlink.com 1.10,2013-06-27 10:23:00,
2013-06-27 06:38:00,63.2,62.0,29.89,SSW,194,0.0,0.0,97,0.01,,,0.09,weatherlink.com 1.10,2013-06-27 10:38:00,
2013-06-27 06:53:00,63.4,63.0,29.88,SSW,194,0.0,0.0,97,0.00,,,0.09,weatherlink.com 1.10,2013-06-27 10:53:00,
2013-06-27 07:08:00,63.3,63.0,29.87,SSW,194,0.0,0.0,97,0.00,,,0.09,weatherlink.com 1.10,2013-06-27 11:08:00,
2013-06-27 07:23:00,63.4,63.0,29.88,South,191,0.0,0.0,97,0.00,,,0.09,weatherlink.com 1.10,2013-06-27 11:23:00,
2013-06-27 07:38:00,63.4,63.0,29.88,South,191,0.0,0.0,97,0.00,,,0.09,weatherlink.com 1.10,2013-06-27 11:38:00,
2013-06-27 07:53:00,63.7,63.0,29.88,South,191,0.0,0.0,97,0.00,,,0.09,weatherlink.com 1.10,2013-06-27 11:53:00,
2013-06-27 08:08:00,63.8,63.0,29.87,South,191,0.0,0.0,97,0.00,,,0.09,weatherlink.com 1.10,2013-06-27 12:08:00,
2013-06-27 08:23:00,64.2,63.0,29.88,South,191,0.0,0.0,97,0.00,,,0.09,weatherlink.com 1.10,2013-06-27 12:23:00,
2013-06-27 08:38:00,64.3,64.0,29.87,South,191,0.0,0.0,97,0.00,,,0.09,weatherlink.com 1.10,2013-06-27 12:38:00,
2013-06-27 08:53:00,64.8,64.0,29.87,South,191,0.0,0.0,97,0.00,,,0.09,weatherlink.com 1.10,2013-06-27 12:53:00,
2013-06-27 09:08:00,65.2,64.0,29.87,South,191,0.0,0.0,97,0.00,,,0.09,weatherlink.com 1.10,2013-06-27 13:08:00,
2013-06-27 09:22:00,66.4,65.5,29.87,South,191,0.0,6.0,97,0.00,,,0.09,Wunderground v.1.15,2013-06-27 13:22:00,
2013-06-27 09:27:00,66.6,65.4,29.86,East,84,0.0,6.0,96,0.00,,,0.09,Wunderground v.1.15,2013-06-27 13:27:00,
2013-06-27 09:33:00,67.5,66.3,29.87,ENE,77,0.0,1.0,96,0.00,,,0.09,Wunderground v.1.15,2013-06-27 13:33:00,
2013-06-27 09:39:00,67.9,66.1,29.86,ENE,60,1.0,2.0,94,0.00,,,0.09,Wunderground v.1.15,2013-06-27 13:39:00,
2013-06-27 09:45:00,68.2,66.4,29.86,ENE,63,1.0,1.0,94,0.00,,,0.09,Wunderground v.1.15,2013-06-27 13:45:00,
2013-06-27 09:50:00,68.8,67.0,29.86,East,99,0.0,1.0,94,0.00,,,0.09,Wunderground v.1.15,2013-06-27 13:50:00,
2013-06-27 09:56:00,68.9,66.5,29.85,ENE,69,0.0,1.0,92,0.00,,,0.09,Wunderground v.1.15,2013-06-27 13:56:00,
2013-06-27 10:01:00,70.1,68.0,29.85,ENE,70,0.0,0.0,93,0.00,,,0.09,Wunderground v.1.15,2013-06-27 14:01:00,
2013-06-27 10:06:00,70.9,68.1,29.85,WNW,303,1.0,2.0,91,0.00,,,0.09,Wunderground v.1.15,2013-06-27 14:06:00,
2013-06-27 10:13:00,72.4,69.6,29.84,ENE,61,1.0,3.0,91,0.00,,,0.09,Wunderground v.1.15,2013-06-27 14:13:00,
2013-06-27 10:15:00,72.6,68.8,29.85,ENE,76,1.0,3.0,88,0.00,,,0.09,Wunderground v.1.15,2013-06-27 14:15:00,
2013-06-27 10:21:00,73.1,70.0,29.85,NNE,33,1.0,1.0,90,0.00,,,0.09,Wunderground v.1.15,2013-06-27 14:21:00,
2013-06-27 10:26:00,73.4,69.6,29.85,NNE,13,1.0,1.0,88,0.00,,,0.09,Wunderground v.1.15,2013-06-27 14:26:00,
2013-06-27 10:32:00,72.9,68.5,29.84,North,354,1.0,2.0,86,0.00,,,0.09,Wunderground v.1.15,2013-06-27 14:32:00,
2013-06-27 10:38:00,72.8,68.7,29.85,North,354,0.0,2.0,87,0.00,,,0.09,Wunderground v.1.15,2013-06-27 14:38:00,
2013-06-27 10:43:00,72.7,68.9,29.85,NW,317,0.0,2.0,88,0.00,,,0.09,Wunderground v.1.15,2013-06-27 14:43:00,
2013-06-27 10:49:00,72.9,69.5,29.84,ENE,72,0.0,2.0,89,0.00,,,0.09,Wunderground v.1.15,2013-06-27 14:49:00,
2013-06-27 10:54:00,72.9,68.8,29.85,North,349,1.0,2.0,87,0.00,,,0.09,Wunderground v.1.15,2013-06-27 14:54:00,
2013-06-27 10:59:00,72.7,68.9,29.84,North,349,1.0,2.0,88,0.00,,,0.09,Wunderground v.1.15,2013-06-27 14:59:00,
2013-06-27 11:05:00,72.7,68.9,29.84,North,349,1.0,2.0,88,0.00,,,0.09,Wunderground v.1.15,2013-06-27 15:05:00,
2013-06-27 11:10:00,72.8,68.4,29.84,ENE,64,0.0,0.0,86,0.00,,,0.09,Wunderground v.1.15,2013-06-27 15:10:00,
2013-06-27 11:16:00,73.0,68.6,29.84,ENE,64,0.0,1.0,86,0.00,,,0.09,Wunderground v.1.15,2013-06-27 15:16:00,
2013-06-27 11:21:00,73.3,68.5,29.84,ENE,68,1.0,2.0,85,0.00,,,0.09,Wunderground v.1.15,2013-06-27 15:21:00,
2013-06-27 11:27:00,74.0,69.5,29.84,NNE,15,1.0,2.0,86,0.00,,,0.09,Wunderground v.1.15,2013-06-27 15:27:00,
2013-06-27 11:31:00,74.8,69.6,29.84,NE,55,1.0,1.0,84,0.00,,,0.09,Wunderground v.1.15,2013-06-27 15:31:00,
2013-06-27 11:37:00,75.3,69.4,29.84,East,82,1.0,3.0,82,0.00,,,0.09,Wunderground v.1.15,2013-06-27 15:37:00,
2013-06-27 11:43:00,75.3,69.8,29.84,East,99,1.0,1.0,83,0.00,,,0.09,Wunderground v.1.15,2013-06-27 15:43:00,
2013-06-27 11:48:00,75.2,69.7,29.83,NE,54,0.0,1.0,83,0.00,,,0.09,Wunderground v.1.15,2013-06-27 15:48:00,
2013-06-27 11:54:00,75.1,69.6,29.83,NNW,330,1.0,3.0,83,0.00,,,0.09,Wunderground v.1.15,2013-06-27 15:54:00,
2013-06-27 12:00:00,75.6,69.4,29.83,ENE,61,1.0,1.0,81,0.00,,,0.09,Wunderground v.1.15,2013-06-27 16:00:00,
2013-06-27 12:06:00,76.1,70.2,29.83,East,84,1.0,1.0,82,0.00,,,0.09,Wunderground v.1.15,2013-06-27 16:06:00,
2013-06-27 12:12:00,76.9,70.6,29.83,East,85,0.0,1.0,81,0.00,,,0.09,Wunderground v.1.15,2013-06-27 16:12:00,
2013-06-27 12:17:00,77.4,70.7,29.83,ENE,58,0.0,2.0,80,0.00,,,0.09,Wunderground v.1.15,2013-06-27 16:17:00,
2013-06-27 12:23:00,77.7,71.0,29.83,ENE,61,0.0,1.0,80,0.00,,,0.09,Wunderground v.1.15,2013-06-27 16:23:00,
2013-06-27 12:28:00,77.9,70.9,29.83,ENE,77,1.0,3.0,79,0.00,,,0.09,Wunderground v.1.15,2013-06-27 16:28:00,
2013-06-27 12:34:00,78.2,70.8,29.83,ENE,63,1.0,4.0,78,0.00,,,0.09,Wunderground v.1.15,2013-06-27 16:34:00,
2013-06-27 12:40:00,78.4,71.0,29.83,ENE,70,1.0,4.0,78,0.00,,,0.09,Wunderground v.1.15,2013-06-27 16:40:00,
2013-06-27 12:45:00,79.0,71.2,29.82,NE,56,1.0,4.0,77,0.00,,,0.09,Wunderground v.1.15,2013-06-27 16:45:00,
2013-06-27 12:52:00,78.6,70.8,29.82,East,98,1.0,4.0,77,0.00,,,0.09,Wunderground v.1.15,2013-06-27 16:52:00,
2013-06-27 12:57:00,78.7,71.3,29.82,NNW,332,1.0,4.0,78,0.00,,,0.09,Wunderground v.1.15,2013-06-27 16:57:00,
2013-06-27 13:03:00,78.9,71.5,29.82,NNW,341,0.0,1.0,78,0.00,,,0.09,Wunderground v.1.15,2013-06-27 17:03:00,
2013-06-27 13:09:00,79.3,71.8,29.82,ENE,74,0.0,1.0,78,0.00,,,0.09,Wunderground v.1.15,2013-06-27 17:09:00,
2013-06-27 13:15:00,79.6,70.6,29.82,East,79,0.0,2.0,74,0.00,,,0.09,Wunderground v.1.15,2013-06-27 17:15:00,
2013-06-27 13:20:00,79.6,70.2,29.82,SE,125,1.0,1.0,73,0.00,,,0.09,Wunderground v.1.15,2013-06-27 17:20:00,
2013-06-27 13:26:00,80.3,70.4,29.81,West,281,1.0,3.0,72,0.00,,,0.09,Wunderground v.1.15,2013-06-27 17:26:00,
2013-06-27 13:32:00,80.6,71.5,29.81,West,281,1.0,4.0,74,0.00,,,0.09,Wunderground v.1.15,2013-06-27 17:32:00,
2013-06-27 13:38:00,81.0,72.3,29.81,ESE,120,0.0,4.0,75,0.00,,,0.09,Wunderground v.1.15,2013-06-27 17:38:00,
2013-06-27 13:44:00,81.7,71.0,29.81,SW,229,0.0,4.0,70,0.00,,,0.09,Wunderground v.1.15,2013-06-27 17:44:00,
2013-06-27 13:49:00,81.7,71.4,29.81,NNW,345,0.0,4.0,71,0.00,,,0.09,Wunderground v.1.15,2013-06-27 17:49:00,
2013-06-27 13:55:00,81.7,73.0,29.81,NNW,333,1.0,4.0,75,0.00,,,0.09,Wunderground v.1.15,2013-06-27 17:55:00,
2013-06-27 14:00:00,81.3,71.8,29.81,NNW,332,2.0,2.0,73,0.00,,,0.09,Wunderground v.1.15,2013-06-27 18:00:00,
2013-06-27 14:06:00,81.2,71.3,29.80,NW,315,1.0,2.0,72,0.00,,,0.09,Wunderground v.1.15,2013-06-27 18:06:00,
2013-06-27 14:11:00,81.2,70.5,29.80,North,6,1.0,2.0,70,0.00,,,0.09,Wunderground v.1.15,2013-06-27 18:11:00,
2013-06-27 14:17:00,81.5,71.2,29.80,NW,326,1.0,2.0,71,0.00,,,0.09,Wunderground v.1.15,2013-06-27 18:17:00,
2013-06-27 14:22:00,81.4,70.2,29.80,NNW,334,1.0,2.0,69,0.00,,,0.09,Wunderground v.1.15,2013-06-27 18:22:00,
2013-06-27 14:28:00,81.2,70.5,29.80,NNE,18,1.0,3.0,70,0.00,,,0.09,Wunderground v.1.15,2013-06-27 18:28:00,
2013-06-27 14:33:00,81.5,70.3,29.80,WNW,301,1.0,1.0,69,0.00,,,0.09,Wunderground v.1.15,2013-06-27 18:33:00,
2013-06-27 14:38:00,81.7,71.4,29.80,NNW,337,0.0,1.0,71,0.00,,,0.09,Wunderground v.1.15,2013-06-27 18:38:00,
2013-06-27 14:44:00,82.1,71.3,29.80,NW,309,0.0,2.0,70,0.00,,,0.09,Wunderground v.1.15,2013-06-27 18:44:00,
2013-06-27 14:50:00,81.9,70.7,29.79,WNW,287,1.0,1.0,69,0.00,,,0.09,Wunderground v.1.15,2013-06-27 18:50:00,
2013-06-27 14:55:00,81.9,70.3,29.79,NW,314,1.0,1.0,68,0.00,,,0.09,Wunderground v.1.15,2013-06-27 18:55:00,
2013-06-27 15:00:00,81.9,70.3,29.79,NW,324,1.0,1.0,68,0.00,,,0.09,Wunderground v.1.15,2013-06-27 19:00:00,
2013-06-27 15:06:00,82.2,69.7,29.78,NW,324,0.0,1.0,66,0.00,,,0.09,Wunderground v.1.15,2013-06-27 19:06:00,
2013-06-27 15:12:00,81.7,70.1,29.78,NW,320,1.0,3.0,68,0.00,,,0.09,Wunderground v.1.15,2013-06-27 19:12:00,
2013-06-27 15:17:00,81.7,71.0,29.78,NW,319,1.0,3.0,70,0.00,,,0.09,Wunderground v.1.15,2013-06-27 19:17:00,
2013-06-27 15:23:00,81.5,71.2,29.78,ENE,77,0.0,0.0,71,0.00,,,0.09,Wunderground v.1.15,2013-06-27 19:23:00,
2013-06-27 15:28:00,81.0,72.0,29.77,NW,309,0.0,0.0,73,0.00,,,0.09,weatherlink.com 1.10,2013-06-27 19:28:00,
2013-06-27 15:34:00,80.6,71.5,29.77,WNW,287,0.0,3.0,74,0.00,,,0.09,Wunderground v.1.15,2013-06-27 19:34:00,
2013-06-27 15:39:00,80.6,71.5,29.77,SE,142,0.0,3.0,74,0.00,,,0.09,Wunderground v.1.15,2013-06-27 19:39:00,
2013-06-27 15:45:00,80.3,72.0,29.78,SSE,150,0.0,3.0,76,0.00,,,0.09,Wunderground v.1.15,2013-06-27 19:45:00,
2013-06-27 15:50:00,80.7,72.0,29.77,SSE,149,0.0,0.0,75,0.00,,,0.09,Wunderground v.1.15,2013-06-27 19:50:00,
2013-06-27 15:56:00,81.5,70.3,29.77,SSE,152,0.0,0.0,69,0.00,,,0.09,Wunderground v.1.15,2013-06-27 19:56:00,
2013-06-27 16:01:00,81.8,71.9,29.77,SSE,155,0.0,0.0,72,0.00,,,0.09,Wunderground v.1.15,2013-06-27 20:01:00,
2013-06-27 16:07:00,81.5,70.8,29.77,SSW,212,0.0,0.0,70,0.00,,,0.09,Wunderground v.1.15,2013-06-27 20:07:00,
2013-06-27 16:13:00,80.8,71.3,29.76,SSW,194,0.0,0.0,73,0.00,,,0.09,Wunderground v.1.15,2013-06-27 20:13:00,
2013-06-27 16:18:00,80.6,71.5,29.76,NNW,347,0.0,0.0,74,0.00,,,0.09,Wunderground v.1.15,2013-06-27 20:18:00,
2013-06-27 16:24:00,80.3,70.9,29.76,NNW,347,0.0,0.0,73,0.00,,,0.09,Wunderground v.1.15,2013-06-27 20:24:00,
2013-06-27 16:30:00,80.1,70.3,29.76,NNW,337,0.0,0.0,72,0.00,,,0.09,Wunderground v.1.15,2013-06-27 20:30:00,
2013-06-27 16:35:00,80.0,70.2,29.76,NNW,338,0.0,0.0,72,0.00,,,0.09,Wunderground v.1.15,2013-06-27 20:35:00,
2013-06-27 16:41:00,79.4,71.6,29.76,SW,215,1.0,2.0,77,0.00,,,0.09,Wunderground v.1.15,2013-06-27 20:41:00,
2013-06-27 16:46:00,79.0,71.9,29.76,West,279,1.0,2.0,79,0.00,,,0.09,Wunderground v.1.15,2013-06-27 20:46:00,
2013-06-27 16:52:00,78.3,71.6,29.77,NE,46,1.0,3.0,80,0.00,,,0.09,Wunderground v.1.15,2013-06-27 20:52:00,
2013-06-27 16:58:00,77.4,71.5,29.77,NW,305,2.0,3.0,82,0.00,,,0.09,Wunderground v.1.15,2013-06-27 20:58:00,
2013-06-27 17:03:00,76.9,71.3,29.76,ENE,61,1.0,2.0,83,0.00,,,0.09,Wunderground v.1.15,2013-06-27 21:03:00,
2013-06-27 17:08:00,76.4,71.2,29.77,NNE,30,1.0,4.0,84,0.00,,,0.09,Wunderground v.1.15,2013-06-27 21:08:00,
2013-06-27 17:16:00,75.2,70.7,29.77,ENE,61,2.0,6.0,86,0.00,,,0.09,Wunderground v.1.15,2013-06-27 21:16:00,
2013-06-27 17:23:00,74.5,70.0,29.79,NNE,13,2.0,4.0,86,0.00,,,0.09,Wunderground v.1.15,2013-06-27 21:23:00,
2013-06-27 17:29:00,73.8,69.0,29.77,ENE,78,1.0,4.0,85,0.00,,,0.09,Wunderground v.1.15,2013-06-27 21:29:00,
2013-06-27 17:34:00,73.8,69.0,29.77,North,1,1.0,2.0,85,0.00,,,0.09,Wunderground v.1.15,2013-06-27 21:34:00,
2013-06-27 17:40:00,74.0,67.8,29.76,NE,44,1.0,1.0,81,0.00,,,0.09,Wunderground v.1.15,2013-06-27 21:40:00,
2013-06-27 17:45:00,74.2,67.6,29.76,NW,309,1.0,3.0,80,0.00,,,0.09,Wunderground v.1.15,2013-06-27 21:45:00,
2013-06-27 17:50:00,74.3,68.4,29.75,NW,307,1.0,1.0,82,0.00,,,0.09,Wunderground v.1.15,2013-06-27 21:50:00,
2013-06-27 17:56:00,74.5,68.3,29.75,NW,307,0.0,3.0,81,0.00,,,0.09,Wunderground v.1.15,2013-06-27 21:56:00,
2013-06-27 18:02:00,74.5,67.2,29.75,ENE,71,0.0,0.0,78,0.00,,,0.09,Wunderground v.1.15,2013-06-27 22:02:00,
2013-06-27 18:07:00,74.5,67.9,29.75,SE,142,0.0,0.0,80,0.00,,,0.09,Wunderground v.1.15,2013-06-27 22:07:00,
2013-06-27 18:13:00,74.3,67.7,29.76,West,278,0.0,2.0,80,0.00,,,0.09,Wunderground v.1.15,2013-06-27 22:13:00,
2013-06-27 18:20:00,74.1,67.2,29.76,South,169,0.0,0.0,79,0.00,,,0.09,Wunderground v.1.15,2013-06-27 22:20:00,
2013-06-27 18:25:00,74.0,67.4,29.76,North,349,1.0,1.0,80,0.00,,,0.09,Wunderground v.1.15,2013-06-27 22:25:00,
2013-06-27 18:30:00,73.6,67.0,29.76,SW,219,1.0,1.0,80,0.00,,,0.09,Wunderground v.1.15,2013-06-27 22:30:00,
2013-06-27 18:36:00,73.2,67.0,29.76,ENE,67,1.0,2.0,81,0.00,,,0.09,Wunderground v.1.15,2013-06-27 22:36:00,
2013-06-27 18:41:00,73.1,67.3,29.76,NE,50,0.0,1.0,82,0.00,,,0.09,Wunderground v.1.15,2013-06-27 22:41:00,
2013-06-27 18:46:00,72.8,67.3,29.76,NNW,341,0.0,1.0,83,0.00,,,0.09,Wunderground v.1.15,2013-06-27 22:46:00,
2013-06-27 18:52:00,72.5,67.7,29.76,South,191,1.0,1.0,85,0.00,,,0.09,Wunderground v.1.15,2013-06-27 22:52:00,
2013-06-27 18:57:00,72.3,67.9,29.76,ENE,70,1.0,1.0,86,0.00,,,0.09,Wunderground v.1.15,2013-06-27 22:57:00,
2013-06-27 19:02:00,72.2,68.1,29.76,ENE,71,0.0,1.0,87,0.00,,,0.09,Wunderground v.1.15,2013-06-27 23:02:00,
2013-06-27 19:08:00,72.1,68.3,29.76,ESE,103,0.0,1.0,88,0.00,,,0.09,Wunderground v.1.15,2013-06-27 23:08:00,
2013-06-27 19:13:00,71.9,68.2,29.77,WSW,240,0.0,1.0,88,0.00,,,0.09,Wunderground v.1.15,2013-06-27 23:13:00,
2013-06-27 19:18:00,71.7,68.3,29.77,WSW,240,1.0,1.0,89,0.00,,,0.09,Wunderground v.1.15,2013-06-27 23:18:00,
2013-06-27 19:25:00,71.6,68.2,29.77,WSW,241,0.0,1.0,89,0.00,,,0.09,Wunderground v.1.15,2013-06-27 23:25:00,
2013-06-27 19:31:00,71.4,68.3,29.77,WSW,240,0.0,1.0,90,0.00,,,0.09,Wunderground v.1.15,2013-06-27 23:31:00,
2013-06-27 19:38:00,71.3,68.2,29.77,WSW,240,0.0,1.0,90,0.00,,,0.09,Wunderground v.1.15,2013-06-27 23:38:00,
2013-06-27 19:43:00,71.2,68.4,29.77,WSW,240,0.0,1.0,91,0.00,,,0.09,Wunderground v.1.15,2013-06-27 23:43:00,
2013-06-27 19:50:00,71.1,68.3,29.77,WSW,240,0.0,1.0,91,0.00,,,0.09,Wunderground v.1.15,2013-06-27 23:50:00,
2013-06-27 19:55:00,70.9,68.1,29.77,WSW,240,0.0,1.0,91,0.00,,,0.09,Wunderground v.1.15,2013-06-27 23:55:00,
2013-06-27 20:00:00,70.8,68.4,29.77,WSW,240,0.0,1.0,92,0.00,,,0.09,Wunderground v.1.15,2013-06-28 00:00:00,
2013-06-27 20:06:00,70.6,68.2,29.77,WSW,240,0.0,1.0,92,0.00,,,0.09,Wunderground v.1.15,2013-06-28 00:06:00,
2013-06-27 20:12:00,70.5,68.4,29.77,WSW,240,0.0,1.0,93,0.00,,,0.09,Wunderground v.1.15,2013-06-28 00:12:00,
2013-06-27 20:17:00,70.4,68.3,29.77,WSW,240,0.0,1.0,93,0.00,,,0.09,Wunderground v.1.15,2013-06-28 00:17:00,
2013-06-27 20:23:00,70.3,68.2,29.77,WSW,240,0.0,1.0,93,0.00,,,0.09,Wunderground v.1.15,2013-06-28 00:23:00,
2013-06-27 20:29:00,70.1,68.0,29.77,SSW,197,0.0,2.0,93,0.00,,,0.09,Wunderground v.1.15,2013-06-28 00:29:00,
2013-06-27 20:34:00,70.1,68.0,29.78,SSW,195,1.0,1.0,93,0.00,,,0.09,Wunderground v.1.15,2013-06-28 00:34:00,
2013-06-27 20:39:00,70.1,68.0,29.78,SSW,195,0.0,1.0,93,0.00,,,0.09,Wunderground v.1.15,2013-06-28 00:39:00,
2013-06-27 20:45:00,70.0,68.0,29.77,SSW,195,0.0,0.0,92,0.00,,,0.09,weatherlink.com 1.10,2013-06-28 00:45:00,
2013-06-27 20:50:00,70.0,67.9,29.78,SSW,195,0.0,1.0,93,0.00,,,0.09,Wunderground v.1.15,2013-06-28 00:50:00,
2013-06-27 20:55:00,69.9,67.8,29.77,SSW,195,0.0,1.0,93,0.00,,,0.09,Wunderground v.1.15,2013-06-28 00:55:00,
2013-06-27 21:00:00,69.9,67.8,29.77,South,191,0.0,1.0,93,0.00,,,0.09,Wunderground v.1.15,2013-06-28 01:00:00,
2013-06-27 21:06:00,69.8,67.7,29.77,South,190,0.0,1.0,93,0.00,,,0.09,Wunderground v.1.15,2013-06-28 01:06:00,
2013-06-27 21:12:00,69.7,67.6,29.77,South,190,0.0,1.0,93,0.00,,,0.09,Wunderground v.1.15,2013-06-28 01:12:00,
2013-06-27 21:17:00,69.7,67.6,29.78,South,190,0.0,1.0,93,0.00,,,0.09,Wunderground v.1.15,2013-06-28 01:17:00,
2013-06-27 21:22:00,69.7,67.6,29.79,South,190,0.0,1.0,93,0.00,,,0.09,Wunderground v.1.15,2013-06-28 01:22:00,
2013-06-27 21:28:00,69.6,67.5,29.79,South,190,0.0,1.0,93,0.00,,,0.09,Wunderground v.1.15,2013-06-28 01:28:00,
2013-06-27 21:45:00,69.7,67.0,29.79,South,191,0.0,0.0,92,0.00,,,0.09,weatherlink.com 1.10,2013-06-28 01:45:00,
2013-06-27 22:00:00,70.3,68.0,29.80,South,190,0.0,0.0,91,0.00,,,0.09,weatherlink.com 1.10,2013-06-28 02:00:00,
2013-06-27 22:15:00,70.1,68.0,29.82,NE,54,0.0,0.0,93,0.00,,,0.09,weatherlink.com 1.10,2013-06-28 02:15:00,
2013-06-27 22:45:00,69.6,68.0,29.81,SSW,200,0.0,0.0,95,0.04,,,0.13,weatherlink.com 1.10,2013-06-28 02:45:00,
2013-06-27 23:00:00,69.3,68.0,29.81,SSW,207,2.0,2.0,95,0.04,,,0.13,weatherlink.com 1.10,2013-06-28 03:00:00,
2013-06-27 23:15:00,68.9,68.0,29.81,SSW,201,1.0,2.0,95,0.04,,,0.13,weatherlink.com 1.10,2013-06-28 03:15:00,